This is the latest recevied weather packets stored in our database for station/object WW6Q. If no packets are shown the sender has not sent any weather packets the latest 10 day(s).
| Time | Temp. | Humidity | Pressure | Rain* | Wind** | Luminosity | Snow |
|---|---|---|---|---|---|---|---|
| 1787868113 | 26.11° C | 57% | 1014.8 hPa | 0 mm | - | 68 W/m² | - |
| 1787867808 | 26.11° C | 56% | 1014.7 hPa | 0 mm | - | 66 W/m² | - |
| 1787867504 | 26.11° C | 61% | 1014.9 hPa | 0 mm | - | 68 W/m² | - |
| 1787867203 | 26.11° C | 57% | 1014.7 hPa | 0 mm | - | 64 W/m² | - |
| 1787866899 | 25.56° C | 58% | 1014.7 hPa | 0 mm | - | 73 W/m² | - |
| 1787866594 | 25.56° C | 60% | 1014.6 hPa | 0 mm | - | 95 W/m² | - |
| 1787866292 | 25.56° C | 62% | 1014.9 hPa | 0 mm | - | 78 W/m² | - |
| 1787865987 | 26.11° C | 59% | 1014.7 hPa | 0 mm | - | 74 W/m² | - |
| 1787865683 | 26.11° C | 59% | 1014.9 hPa | 0 mm | - | 85 W/m² | - |
| 1787865383 | 26.11° C | 58% | 1014.5 hPa | 0 mm | - | 75 W/m² | - |
| 1787865078 | 25.56° C | 60% | 1015 hPa | 0 mm | - | 81 W/m² | - |
| 1787864774 | 25.56° C | 56% | 1014.7 hPa | 0 mm | - | 90 W/m² | - |
| 1787864468 | 25.56° C | 59% | 1014.8 hPa | 0 mm | - | 142 W/m² | - |
| 1787864168 | 25.56° C | 59% | 1014.6 hPa | 0 mm | - | 78 W/m² | - |
| 1787863862 | 26.11° C | 60% | 1014.9 hPa | 0 mm | - | 102 W/m² | - |
| 1787863560 | 26.11° C | 59% | 1014.8 hPa | 0 mm | - | 162 W/m² | - |
| 1787863256 | 26.11° C | 61% | 1014.8 hPa | 0 mm | - | 179 W/m² | - |
| 1787862951 | 25.56° C | 62% | 1015 hPa | 0 mm | - | 180 W/m² | - |
| 1787862341 | 25.56° C | 62% | 1014.9 hPa | 0 mm | - | 167 W/m² | - |
| 1787862037 | 26.11° C | 61% | 1015.1 hPa | 0 mm | - | 127 W/m² | - |
| 1787861736 | 26.67° C | 60% | 1014.7 hPa | 0 mm | - | 157 W/m² | - |
| 1787861434 | 26.67° C | 59% | 1014.9 hPa | 0 mm | - | 197 W/m² | - |
| 1787861130 | 27.22° C | 55% | 1014.9 hPa | 0 mm | - | 229 W/m² | - |
| 1787860829 | 27.78° C | 56% | 1015 hPa | 0 mm | - | 220 W/m² | - |
| 1787860523 | 27.78° C | 57% | 1014.8 hPa | 0 mm | - | 720 W/m² | - |
* Rain latest hour (hover to see other rain measurements)
** Current wind speed in m/s (hover to see current wind gust speed)